STARLINK-1183, 45088

Orbit data source: Space-Track

STARLINK-1183, 45088 is a payload satellite owned by SpaceX/Seattle (US) in LEO that was launched on Wed, 29 Jan 2020 UTC via an FALCON 9 launch vehicle from the Air Force Eastern Test Range (AFETR). Payload-class satellites include a variety of spacecraft equipped with specific instruments for various scientific and technological missions. These include communications satellites like Starlink; space stations such as the ISS; scientific satellites like the Hubble; Earth observation satellites from companies like Planet Labs, Umbra, and HawkEye 360; GPS; miniature CubeSats for education and research; and military/defense satellites.

Loading next visibility...
Identifier
45088, 2020-006AW
Orbit
LEO
Country
Flag of USUS
Related business
Manufacturer
SpaceX/Seattle
Mission
Partially operational Commercial Communications
Bus & Motor
STARLINK, Unknown motor
Mass
260 kg wet, ~248 kg dry
Launch date (UTC)
2020-01-29 (7 years ago)
Launch vehicle
FALCON 9
Launch site
Air Force Eastern Test Range (AFETR)
Object type
Payload
Rocket body
Debris
Shape & HBR
Box + 1 Pan, 10.1 m
Radar Cross Section
13.562 m², Large (>1 m²)

Expand to show TLE details & history
Last TLE update: 15 hours ago

TLE from 15 hours ago
0 STARLINK-1183
1 45088U 20006AW  26253.30278727  .00049057  00000-0  11161-2 0  9994
2 45088  53.1540  98.3275 0002078 101.1769 258.9470 15.42517847365442
Epoch: 2026-09-10T07:16Z
TLE epoch observation values (Epoch: 2026-09-10T07:16:00.820Z)
Latitude
-0.00006°
Longitude
-0.0184°
Altitude
439.857 km
Speed
7.649 km/s
True Right ascension
06h 33m 18s
True Declination
0° 00' 00"
Sunlit
Object was in daylight at epoch
Visualization orbit readout
Latitude
Unknown
Longitude
Unknown
Altitude
Unknown
Speed
Unknown
Apparent Right ascension
Unknown
Apparent Declination
Unknown
Sunlit
N/A
Visualization observer readout
Local Sidereal Time
14:11:07
Azimuth
Unknown
Elevation
Unknown
Doppler factor
Unknown
Orbital elements
Apogee altitude
440.356 km
Perigee altitude
437.523 km
Semi-major axis
6,817.077 km
Eccentricity
0.00021
Inclination
53.154°
RAAN
98.3275°
Arg. of periapsis
101.1769°
True anomaly
258.92363°
Mean anomaly
258.947°
Eccentric anomaly
258.93532°
Mean motion
3.85608 °/min
Orbital period
93.36 mins
BSTAR
0.0011161
Loading maneuver chart data...
Computing Atmospheric mass density...

Documentation

Showing up to 5 results
|